Location: Squirrel Cove
(50.1074°N, 124.9139°W)
Time: 00:42:05
(UTC-07:00)

STRAND 1 - Visible Passes

Search period start: 16 May 2022 00:00
Search period end: 26 May 2022 00:00
Orbit: 767 x 781 km, 98.4° (Epoch: 15 May)

Date Brightness Start Highest point End Pass type
(mag) Time Alt. Az. Time Alt. Az. Time Alt. Az.
16 May ? 22:29:37 10° NNW 22:32:27 15° NW 22:35:17 10° W visible
17 May ? 21:54:33 10° N 21:58:43 25° WNW 22:02:52 10° WSW visible
19 May ? 22:26:09 10° NNW 22:29:09 16° NW 22:32:10 10° W visible
20 May ? 21:51:08 10° N 21:55:23 27° WNW 21:59:39 10° WSW visible
22 May ? 22:22:41 10° NNW 22:25:51 17° NW 22:29:00 10° W visible
23 May ? 21:47:43 10° N 21:52:04 28° WNW 21:56:24 10° WSW visible
24 May ? 22:55:49 10° NW 22:56:10 10° NW 22:56:30 10° NW visible
25 May ? 22:19:13 10° NNW 22:22:32 18° NW 22:25:51 10° W visible
